Location: Glenbow
(51.1592°N, 114.3828°W)
Time: 20:32:49
(UTC+00:00)

Envisat - Pass Details

Date: 04 December 2021
Orbit: 764 x 766 km, 98.2° (Epoch: 26 January)

Event Time Altitude Azimuth Distance (km) Brightness Sun altitude
Rises 12:11:05 0° 19° (NNE) 3,247 6.5 -29.1°
Reaches altitude 10° 12:13:32 10° 26° (NNE) 2,316 5.7 -28.7°
Maximum altitude 12:18:22 42° 97° (E) 1,087 4.2 -28.0°
Drops below altitude 10° 12:23:10 10° 168° (SSE) 2,298 5.6 -27.2°
Sets 12:25:35 0° 176° (S) 3,219 6.3 -26.8°
